This is the latest recevied weather packets stored in our database for station/object YM2KV-13. If no packets are shown the sender has not sent any weather packets the latest 10 day(s).
| Time | Temp. | Humidity | Pressure | Rain* | Wind** | Luminosity | Snow |
|---|---|---|---|---|---|---|---|
| 1778068789 | 20° C | 55% | 1028.7 hPa | - | - | - | - |
| 1778068189 | 19.44° C | 56% | 1028.7 hPa | - | - | - | - |
| 1778067589 | 18.89° C | 56% | 1028.7 hPa | - | - | - | - |
| 1778066989 | 17.78° C | 60% | 1028.6 hPa | - | - | - | - |
| 1778066389 | 18.89° C | 58% | 1028.6 hPa | - | - | - | - |
| 1778065789 | 20.56° C | 58% | 1028.7 hPa | - | - | - | - |
| 1778065189 | 19.44° C | 57% | 1028.7 hPa | - | - | - | - |
| 1778064589 | 18.89° C | 59% | 1028.8 hPa | - | - | - | - |
| 1778063989 | 20° C | 57% | 1028.9 hPa | - | - | - | - |
| 1778063389 | 18.89° C | 60% | 1028.8 hPa | - | - | - | - |
| 1778062789 | 18.89° C | 60% | 1028.8 hPa | - | - | - | - |
| 1778062189 | 18.89° C | 61% | 1028.8 hPa | - | - | - | - |
| 1778061589 | 17.78° C | 63% | 1028.8 hPa | - | - | - | - |
| 1778060989 | 17.22° C | 63% | 1028.8 hPa | - | - | - | - |
| 1778060389 | 17.78° C | 63% | 1028.9 hPa | - | - | - | - |
| 1778059789 | 17.78° C | 63% | 1029 hPa | - | - | - | - |
| 1778059189 | 17.22° C | 64% | 1029 hPa | - | - | - | - |
| 1778058589 | 17.78° C | 64% | 1029.1 hPa | - | - | - | - |
| 1778057989 | 16.67° C | 69% | 1029.1 hPa | - | - | - | - |
| 1778057389 | 16.67° C | 70% | 1029.1 hPa | - | - | - | - |
| 1778056789 | 16.67° C | 69% | 1029 hPa | - | - | - | - |
| 1778056189 | 16.67° C | 65% | 1029.1 hPa | - | - | - | - |
| 1778055589 | 16.67° C | 66% | 1029 hPa | - | - | - | - |
| 1778054989 | 16.67° C | 69% | 1029 hPa | - | - | - | - |
| 1778054389 | 15° C | 68% | 1028.9 hPa | - | - | - | - |
* Rain since midnight (hover to see other rain measurements)
** Current wind speed in m/s (hover to see current wind gust speed)